This is the latest recevied weather packets stored in our database for station/object N3AVN. If no packets are shown the sender has not sent any weather packets the latest 10 day(s).
| Time | Temp. | Humidity | Pressure | Rain* | Wind** | Luminosity | Snow |
|---|---|---|---|---|---|---|---|
| 1778105222 | 15° C | 98% | 1004.6 hPa | 0 mm | - | 28 W/m² | - |
| 1778104917 | 15° C | 98% | 1004.7 hPa | 0 mm | - | 29 W/m² | - |
| 1778104614 | 15° C | 98% | 1004.8 hPa | 0.51 mm | - | 28 W/m² | - |
| 1778104309 | 15° C | 98% | 1004.6 hPa | 0.51 mm | - | 35 W/m² | - |
| 1778104007 | 15° C | 98% | 1004.7 hPa | 0.51 mm | - | 33 W/m² | - |
| 1778103703 | 15° C | 98% | 1004.5 hPa | 1.78 mm | - | 35 W/m² | - |
| 1778103402 | 15° C | 98% | 1004.7 hPa | 3.05 mm | - | 43 W/m² | - |
| 1778103098 | 15° C | 97% | 1004.7 hPa | 1.27 mm | - | 43 W/m² | - |
| 1778102796 | 15.56° C | 97% | 1004.7 hPa | 0 mm | - | 26 W/m² | - |
| 1778102490 | 15.56° C | 97% | 1004.5 hPa | 0 mm | - | 12 W/m² | - |
| 1778102186 | 15.56° C | 98% | 1004.7 hPa | 0 mm | - | 34 W/m² | - |
| 1778101883 | 15° C | 98% | 1004.6 hPa | 0 mm | - | 65 W/m² | - |
| 1778101580 | 15.56° C | 98% | 1004.7 hPa | 0 mm | - | 53 W/m² | - |
| 1778101276 | 15.56° C | 98% | 1004.7 hPa | 0 mm | - | 69 W/m² | - |
| 1778100973 | 15.56° C | 98% | 1004.7 hPa | 0 mm | - | 115 W/m² | - |
| 1778100668 | 15.56° C | 98% | 1004.9 hPa | 0 mm | - | 105 W/m² | - |
| 1778100366 | 15.56° C | 98% | 1004.6 hPa | 0 mm | - | 127 W/m² | - |
| 1778100063 | 15° C | 98% | 1004.8 hPa | 0 mm | - | 93 W/m² | - |
| 1778099762 | 15° C | 98% | 1004.9 hPa | 0 mm | - | 99 W/m² | - |
| 1778099458 | 15.56° C | 97% | 1004.9 hPa | 0.51 mm | - | 111 W/m² | - |
| 1778099155 | 15° C | 97% | 1004.9 hPa | 1.27 mm | - | 135 W/m² | - |
| 1778098851 | 15° C | 97% | 1005 hPa | 1.27 mm | - | 131 W/m² | - |
| 1778098549 | 15° C | 97% | 1004.9 hPa | 1.27 mm | - | 94 W/m² | - |
| 1778098246 | 15° C | 97% | 1005.1 hPa | 1.27 mm | - | 95 W/m² | - |
| 1778097942 | 15° C | 96% | 1005.1 hPa | 0.51 mm | - | 82 W/m² | - |
* Rain latest hour (hover to see other rain measurements)
** Current wind speed in m/s (hover to see current wind gust speed)